This demonstration page uses our WeatherBlox Daily Observations layout. Learn more.

Hourly Observations for June 22, 2018

Temp ( °F °C ) Dew Point ( °F °C ) Humidity (%) Winds ( mph kmh ) Pressure ( in mb ) Visibility ( mi km ) Precip ( " mm )
12:15 am 00:15 Clear 58 14.7 57 14 96 96 N 6 9 29.94 1014 10 16.09344 0 0
12:35 am 00:35 Clear 58 14.5 57 14 97 97 NNW 3 6 29.97 1015 10 16.09344 0 0
12:55 am 00:55 Clear 58 14.3 57 14 98 98 NNW 5 7 29.94 1014 10 16.09344 0 0
1:15 am 01:15 Clear 57 13.7 56 13.5 99 99 N 6 9 29.94 1014 10 16.09344 0 0
1:35 am 01:35 Clear 57 14 57 13.8 99 99 NW 5 7 29.94 1014 10 16.09344 0 0
1:55 am 01:55 Clear 57 14 56 13.6 97 97 NNW 8 13 29.97 1015 10 16.09344 0 0
2:15 am 02:15 Clear 56 13.6 56 13.3 98 98 NW 5 7 29.97 1015 10 16.09344 0 0
2:35 am 02:35 Clear 57 13.7 56 13.6 99 99 NNW 7 11 29.94 1014 10 16.09344 0 0
2:55 am 02:55 Clear 57 13.7 56 13.5 99 99 N 7 11 29.94 1014 10 16.09344 0 0
3:15 am 03:15 Clear 57 13.7 56 13.5 99 99 NNW 6 9 29.94 1014 10 16.09344 0 0
3:35 am 03:35 Clear 56 13.6 56 13.2 97 97 N 5 7 29.94 1014 10 16.09344 0 0
3:55 am 03:55 Clear 55 13 55 12.8 99 99 NW 5 7 29.94 1014 10 16.09344 0 0
4:15 am 04:15 Clear 55 13 55 13 100 100 NNW 5 7 29.91 1013 10 16.09344 0 0
4:35 am 04:35 Clear 55 12.6 55 12.5 99 99 WNW 5 7 29.94 1014 10 16.09344 0 0
4:55 am 04:55 Clear 54 12.2 54 12.2 100 100 NNW 5 7 29.97 1015 10 16.09344 0 0
5:15 am 05:15 Clear 55 12.5 55 12.5 100 100 NNW 3 6 29.91 1013 10 16.09344 0 0
5:35 am 05:35 Clear 55 12.6 55 12.5 99 99 N 5 7 29.91 1013 10 16.09344 0 0
5:55 am 05:55 Clear 55 12.6 54 12.4 99 99 N 6 9 29.94 1014 10 16.09344 0 0
6:15 am 06:15 Sunny 54 12.2 54 12 99 99 N 6 9 29.91 1013 10 16.09344 0 0
6:35 am 06:35 Sunny 54 12.2 54 12 99 99 N 6 9 29.91 1013 10 16.09344 0 0
6:55 am 06:55 Sunny 55 12.8 55 12.5 98 98 Calm 29.94 1014 10 16.09344 0 0
7:15 am 07:15 Sunny 56 13.2 55 12.6 96 96 N 3 6 29.94 1014 10 16.09344 0 0
7:35 am 07:35 Sunny 57 13.9 56 13.1 95 95 NNW 3 6 29.94 1014 10 16.09344 0 0
7:55 am 07:55 Sunny 58 14.7 56 13.6 93 93 N 5 7 29.94 1014 10 16.09344 0 0
8:15 am 08:15 Sunny 59 15.2 57 13.7 91 91 N 3 6 29.94 1014 10 16.09344 0 0
8:35 am 08:35 Sunny 60 15.8 57 13.9 89 89 NNE 5 7 29.91 1013 10 16.09344 0 0
8:55 am 08:55 Sunny 62 16.4 57 14.1 86 86 NNE 5 7 29.91 1013 10 16.09344 0 0
9:15 am 09:15 Sunny 63 17.1 58 14.2 83 83 NNE 7 11 29.91 1013 10 16.09344 0 0
9:35 am 09:35 Sunny 64 17.8 57 13.7 77 77 NNE 6 9 29.91 1013 10 16.09344 0 0
9:55 am 09:55 Sunny 65 18.2 57 13.8 76 76 NE 7 11 29.91 1013 10 16.09344 0 0
10:15 am 10:15 Sunny 66 19 57 14.1 73 73 ENE 6 9 29.91 1013 10 16.09344 0 0
10:35 am 10:35 Sunny 67 19.2 57 13.8 71 71 NE 6 9 29.88 1012 10 16.09344 0 0
10:55 am 10:55 Sunny 68 19.8 57 13.7 68 68 NE 6 9 29.88 1012 10 16.09344 0 0
11:15 am 11:15 Sunny 68 20.1 56 13.6 66 66 NE 8 13 29.88 1012 10 16.09344 0 0
11:35 am 11:35 Sunny 69 20.7 57 14 66 66 ENE 8 13 29.88 1012 10 16.09344 0 0
11:55 am 11:55 Sunny 69 20.8 57 14.1 66 66 E 6 9 29.88 1012 10 16.09344 0 0
12:15 pm 12:15 Sunny 69 20.6 58 14.2 67 67 Calm 29.85 1011 10 16.09344 0 0
12:35 pm 12:35 Partly Cloudy 70 21.2 58 14.7 67 67 E 7 11 29.85 1011 10 16.09344 0 0
12:55 pm 12:55 Partly Cloudy 71 21.6 59 15 66 66 ENE 6 9 29.85 1011 10 16.09344 0 0
1:15 pm 13:15 Sunny 71 21.5 59 15.1 67 67 E 6 9 29.85 1011 10 16.09344 0 0
1:35 pm 13:35 Partly Cloudy 72 22.2 60 15.5 66 66 E 8 13 29.85 1011 10 16.09344 0 0
1:55 pm 13:55 Partly Cloudy 72 22.2 60 15.6 66 66 SE 7 11 29.8 1009 10 16.09344 0 0
2:15 pm 14:15 Partly Cloudy 72 22.3 60 15.5 66 66 NE 5 7 29.8 1009 10 16.09344 0 0
2:35 pm 14:35 Sunny 73 22.8 61 16 66 66 ENE 10 17 29.8 1009 10 16.09344 0 0
2:55 pm 14:55 Sunny 73 22.9 60 15.6 64 64 ENE 5 7 29.77 1008 10 16.09344 0 0
3:15 pm 15:15 Sunny 73 23 59 15.1 61 61 E 5 7 29.77 1008 10 16.09344 0 0
3:35 pm 15:35 Sunny 74 23.6 61 16.1 63 63 E 9 15 29.77 1008 10 16.09344 0 0
3:55 pm 15:55 Sunny 74 23.5 59 15.2 60 60 SE 5 7 29.77 1008 10 16.09344 0 0
4:15 pm 16:15 Partly Cloudy 74 23.4 59 15 59 59 ENE 7 11 29.77 1008 10 16.09344 0 0
4:35 pm 16:35 Mostly Cloudy 75 23.7 61 15.9 62 62 E 5 7 29.74 1007 10 16.09344 0 0
4:55 pm 16:55 Mostly Cloudy 75 23.8 61 15.9 61 61 ENE 8 13 29.74 1007 10 16.09344 0 0
5:15 pm 17:15 Partly Cloudy 74 23.6 60 15.8 62 62 Calm 29.74 1007 10 16.09344 0 0
5:35 pm 17:35 Mostly Cloudy 73 23 60 15.5 63 63 ENE 3 6 29.74 1007 10 16.09344 0 0
5:55 pm 17:55 Cloudy with Thunderstorms 72 22.4 62 16.4 69 69 ENE 6 9 29.74 1007 10 16.09344 0 0
6:15 pm 18:15 Cloudy with Light Rain 71 21.5 63 17.1 76 76 W 6 9 29.8 1009 10 16.09344 0 0
6:35 pm 18:35 Cloudy with Heavy Thunderstorms 67 19.6 62 16.5 82 82 W 6 9 29.83 1010 4 6.437376 0.15 3.81
6:55 pm 18:55 Cloudy with Rain 64 18 62 16.7 92 92 Calm 29.77 1008 4 6.437376 0.29 7.366
7:15 pm 19:15 Cloudy with Light Rain 65 18.5 63 17.3 93 93 Calm 29.74 1007 7 11.265408 0.02 0.508
7:35 pm 19:35 Cloudy with Light Rain 66 19.1 64 17.5 91 91 SSW 5 7 29.77 1008 7 11.265408 0.04 1.016
7:55 pm 19:55 Cloudy with Light Thunderstorms 66 18.8 63 17.2 90 90 SSE 8 13 29.74 1007 10 16.09344 0.04 1.016
8:15 pm 20:15 Partly Cloudy with Light Drizzle 65 18.5 64 17.5 94 94 ESE 10 17 29.71 1006 10 16.09344 0 0
8:35 pm 20:35 Sunny 65 18.6 64 18 96 96 ENE 10 17 29.71 1006 10 16.09344 0.01 0.254
8:55 pm 20:55 Mostly Cloudy 65 18.4 64 18 98 98 NE 6 9 29.71 1006 10 16.09344 0.01 0.254
9:15 pm 21:15 Cloudy 65 18.5 65 18.1 98 98 SE 12 19 29.71 1006 10 16.09344 0 0
9:35 pm 21:35 Mostly Cloudy with Light Drizzle 64 18 63 17.4 96 96 NW 6 9 29.74 1007 10 16.09344 0 0
9:55 pm 21:55 Cloudy 64 18 64 17.5 97 97 NE 13 20 29.74 1007 7 11.265408 0 0
10:15 pm 22:15 Mostly Cloudy with Light Rain 64 17.6 63 17.1 97 97 ESE 20 31 29.77 1008 10 16.09344 0 0
10:35 pm 22:35 Mostly Cloudy with Light Rain 64 17.5 62 16.7 95 95 ESE 9 15 29.8 1009 10 16.09344 0 0
10:55 pm 22:55 Cloudy with Light Rain 63 17.2 63 17 99 99 SE 15 24 29.77 1008 10 16.09344 0.01 0.254
11:15 pm 23:15 Mostly Cloudy 63 17.1 62 16.8 98 98 SE 20 31 29.74 1007 10 16.09344 0 0
11:35 pm 23:35 Partly Cloudy with Nearby Thunderstorms 63 17 62 16.7 98 98 SSE 22 35 29.74 1007 10 16.09344 0.01 0.254
11:55 pm 23:55 Mostly Cloudy 63 17 62 16.5 97 97 SE 7 11 29.77 1008 10 16.09344 0.01 0.254

Powered by AerisWeather